[[{"header":{"parameterUnit":"m.s-1","parameterCategory":1,"la1":30.2991,"la2":30.254,"lo1":-89.0895,"lo2":-89.0444,"dy":0.0017,"dx":0.0017,"nx":28,"ny":28,"refTime":"2024-05-13T21:00:00:Z","depth":0,"parameterNumber":2,"parameterNumberName":"U-component_of_WINDS"},"data":[0,0,0,0,0,0,0,0,0,0,0,0,0,0,0,0,0,0,0,0,0,0,0,0,0,0,0,0,0,0,0,0,0,0,0,0,0,0,0,0,0,0,0,0,0,0,0,0,0,0,0,0,0,0,0,0,0,0,-3.8294,-3.8295,0,-3.8426,-3.8427,-3.8428,-3.8429,-3.8428,-3.8426,-3.8424,-3.8561,-3.8566,-3.8571,0,0,0,0,0,0,0,0,0,0,0,0,0,-3.8044,-3.8048,-3.8293,-3.8295,-3.8297,-3.8425,-3.8427,-3.8429,-3.843,-3.8428,-3.8425,-3.8424,-3.8559,-3.8565,-3.8571,0,0,0,0,0,0,0,0,0,0,0,0,0,-3.8162,-3.805,-3.8293,-3.8313,-3.8316,-3.8425,-3.8427,-3.8429,-3.843,-3.8427,-3.8425,-3.8423,-3.8557,-3.8564,-3.8572,-3.8671,0,0,-3.8596,-3.8599,0,0,0,0,0,0,0,0,-3.8155,-3.8171,-3.8308,-3.8311,-3.8315,-3.8408,-3.8389,-3.851,-3.8431,-3.8387,-3.8424,-3.8421,-3.8512,-3.8523,-3.8554,-3.8678,-3.8683,-3.8597,-3.8601,-3.8605,-3.8607,0,0,0,0,0,0,0,-3.8147,-3.8165,-3.8346,-3.831,-3.8314,-3.8315,-3.8329,-3.8412,-3.8462,-3.839,-3.8391,-3.8406,-3.8513,-3.8546,-3.8557,-3.8685,-3.8596,-3.8603,-3.8608,-3.8611,-3.8897,-3.89,0,0,0,0,0,0,-3.8134,-3.8158,-3.8342,-3.835,-3.8227,-3.8322,-3.8337,-3.8381,-3.8461,-3.8471,-3.8408,-3.8406,-3.8534,-3.8548,-3.8562,-3.8682,-3.8605,-3.8612,-3.8617,-3.8894,-3.8898,-3.8901,0,0,0,0,0,0,-3.8129,-3.8151,-3.8336,-3.8254,-3.8278,-3.8329,-3.8378,-3.8385,-3.8417,-3.8475,-3.8484,-3.8432,-3.8533,-3.8551,-3.8644,-3.8687,-3.8616,-3.8623,-3.8891,-3.8895,-3.8899,-3.8924,0,0,0,0,0,0,-3.8122,-3.8149,-3.8186,-3.8255,-3.8282,-3.8415,-3.838,-3.8389,-3.8431,-3.8429,-3.85,-3.8509,-3.8532,-3.8632,-3.8652,-3.8696,-3.8629,-3.8887,-3.8893,-3.8898,-3.8919,-3.8928,-3.8936,0,0,0,0,0,-3.8113,-3.8188,-3.8188,-3.821,-3.833,-3.8418,-3.8434,-3.8458,-3.8434,-3.8473,-3.851,-3.8507,-3.868,-3.8642,-3.8664,-3.8711,-3.8884,-3.8891,-3.8897,-3.8915,-3.8926,-3.8936,0,0,0,0,0,0,-3.8124,-3.8198,-3.8198,-3.8298,-3.8352,-3.8418,-3.8467,-3.8469,-3.8531,-3.8526,-3.8555,-3.8571,-3.8664,-3.8697,-3.8654,-3.8811,-3.8779,-3.879,-3.8785,-3.8796,-3.8805,-3.8793,-3.8635,0,0,0,0,0,-3.8138,-3.8202,-3.8264,-3.8346,-3.8373,-3.8415,-3.8455,-3.8469,-3.8526,-3.8548,-3.8592,-3.8648,-3.8714,-3.8758,-3.8822,-3.8925,-3.894,-3.8969,-3.8977,-3.8984,-3.8992,-3.9048,-3.9061,-3.8922,-3.8922,-3.8922,0,0,-3.8167,-3.8216,-3.8255,-3.835,-3.8393,-3.8459,-3.8434,-3.8506,-3.8555,-3.856,-3.8649,-3.8684,-3.8748,-3.8846,-3.8891,-3.8876,-3.9035,-3.8992,-3.8997,-3.9002,-3.9056,-3.9069,-3.9081,-3.8927,-3.8926,-3.8925,0,0,-3.8254,-3.8298,-3.8371,-3.8415,-3.848,-3.8508,-3.8526,-3.8592,-3.8615,-3.8706,-3.871,-3.877,-3.8885,-3.893,-3.8968,-3.9073,-3.9073,-3.9094,-3.9137,-3.9191,-3.9202,-3.9212,-3.9248,-3.9261,-3.9103,-3.9103,-3.9103,0,-3.8283,-3.8382,-3.8408,-3.8479,-3.8521,-3.8528,-3.8602,-3.8643,-3.8727,-3.8756,-3.8738,-3.8882,-3.8926,-3.9034,-3.906,-3.9091,-3.9112,-3.9085,-3.9199,-3.9209,-3.9218,-3.9253,-3.9267,-3.9105,-3.9105,-3.9105,-3.9104,0,-3.8413,-3.8482,-3.8533,-3.8613,-3.8661,-3.8733,-3.877,-3.8815,-3.8826,-3.8856,-3.8949,-3.9002,-3.9077,-3.9105,-3.9116,-3.9215,-3.9203,-3.9192,-3.916,-3.9233,-3.9266,-3.928,-3.9108,-3.9107,-3.9107,-3.9106,0,0,-3.8508,-3.8602,-3.862,-3.8656,-3.873,-3.8784,-3.8857,-3.893,-3.8968,-3.9026,-3.9088,-3.9185,-3.9175,-3.9219,-3.9236,-3.9284,-3.9362,-3.9267,-3.9269,-3.9281,-3.9473,-3.9478,-3.9493,-3.9364,-3.9366,-3.9369,-3.9467,0,-3.8602,-3.873,-3.8756,-3.8868,-3.8931,-3.894,-3.9004,-3.9056,-3.9087,-3.9146,-3.918,-3.9248,-3.9231,-3.9257,-3.9305,-3.9343,-3.9401,-3.9336,-3.942,-3.9423,-3.9401,-3.9511,-3.9518,-3.9607,-3.948,-3.9482,-3.9484,0,-3.8727,-3.8787,-3.8905,-3.897,-3.8997,-3.9054,-3.9123,-3.918,-3.924,-3.9259,-3.9307,-3.932,-3.9396,-3.9363,-3.9468,-3.9424,-3.9461,-3.9484,-3.9489,-3.9495,-3.9456,-3.9518,-3.9637,-3.9649,-3.9505,-3.9503,-3.9502,0,-3.8782,-3.8893,-3.8977,-3.9009,-3.9087,-3.9126,-3.9161,-3.9218,-3.926,-3.9322,-3.9349,-3.9419,-3.9457,-3.9511,-3.9541,-3.9514,-3.9645,-3.9614,-3.9662,-3.9661,-3.9686,-3.9684,-3.981,-3.9714,-3.9714,-3.9714,-3.9714,0,-3.8882,-3.8953,-3.9003,-3.9055,-3.9135,-3.9165,-3.9244,-3.9278,-3.933,-3.9388,-3.9402,-3.9457,-3.9495,-3.9556,-3.9581,-3.9664,-3.9682,-3.9699,-3.9704,-3.9697,-3.9694,-3.9719,-3.9712,-3.9717,-3.9717,-3.9716,-3.9715,0,-3.8956,-3.8992,-3.9084,-3.9151,-3.917,-3.9226,-3.9283,-3.9334,-3.9365,-3.944,-3.9459,-3.9508,-3.9581,-3.9618,-3.9708,-3.9725,-3.9818,-3.9821,-3.9797,-3.9799,-3.9844,-3.9838,-3.9988,-4.0008,-3.9901,-3.9902,-3.9903,0,-3.9016,-3.907,-3.9143,-3.9183,-3.9218,-3.9283,-3.9326,-3.9358,-3.9403,-3.9475,-3.9518,-3.9591,-3.965,-3.9765,-3.981,-3.9879,-3.9882,-3.993,-3.9893,-3.9883,-3.988,-3.9876,-3.9881,-3.9936,-3.9937,-3.9938,-3.9938,0,-3.9118,-3.9133,-3.9194,-3.9262,-3.9313,-3.9368,-3.9423,-3.9455,-3.9497,-3.9546,-3.962,-3.9666,-3.9758,-3.983,-3.9903,-3.994,-3.9946,-3.995,-3.9964,-3.9955,-3.9938,-3.9946,-3.9813,-3.9946,-3.9945,-3.9944,-3.9944,-3.9944,-3.9185,-3.9234,-3.9292,-3.936,-3.9404,-3.9455,-3.9506,-3.9543,-3.9605,-3.9682,-3.9698,-3.9776,-3.9835,-3.9933,-3.9972,-4.0034,-4.0024,-4.0045,-4.005,-4.0054,-4.0055,-3.9931,-4.0048,-4.0048,-4.0047,-4.0047,-4.0047,0,-3.9286,-3.9324,-3.9386,-3.9461,-3.9515,-3.9517,-3.9577,-3.9622,-3.969,-3.9744,-3.9803,-3.9888,-3.9958,-4.0008,-4.008,-4.0119,-4.0124,-4.0137,-4.0133,-4.0141,-4.0061,-4.004,-4.0132,-4.0132,-4.0132,-4.0132,-4.0132,-4.0132,-3.9344,-3.9426,-3.9449,-3.9553,-3.9591,-3.9667,-3.9701,-3.9748,-3.9792,-3.9885,-3.9943,-3.9975,-4.0028,-4.0104,-4.0169,-4.0182,-4.0207,-4.0219,-4.0232,-4.0156,-4.0147,-4.0138,-4.0118,-4.0225,-4.0225,-4.0306,-4.0307,-4.0308]},{"header":{"parameterUnit":"m.s-1","parameterCategory":1,"la1":30.2991,"la2":30.254,"lo1":-89.0895,"lo2":-89.0444,"dy":0.0017,"dx":0.0017,"nx":28,"ny":28,"refTime":"2024-05-13T21:00:00:Z","depth":0,"parameterNumber":3,"parameterNumberName":"V-component_of_WINDS"},"data":[0,0,0,0,0,0,0,0,0,0,0,0,0,0,0,0,0,0,0,0,0,0,0,0,0,0,0,0,0,0,0,0,0,0,0,0,0,0,0,0,0,0,0,0,0,0,0,0,0,0,0,0,0,0,0,0,0,0,4.395,4.3952,0,4.4143,4.4145,4.4147,4.4166,4.4164,4.4162,4.4161,4.4354,4.4361,4.4368,0,0,0,0,0,0,0,0,0,0,0,0,0,4.3595,4.3602,4.395,4.3952,4.3955,4.4143,4.4145,4.4148,4.4167,4.4164,4.4162,4.416,4.4352,4.436,4.4369,0,0,0,0,0,0,0,0,0,0,0,0,0,4.3765,4.3604,4.3949,4.3987,4.3992,4.4142,4.4145,4.4149,4.4167,4.4164,4.4161,4.4159,4.4349,4.436,4.437,4.4495,0,0,4.4402,4.4407,0,0,0,0,0,0,0,0,4.3755,4.3778,4.3979,4.3984,4.3991,4.4128,4.4091,4.4264,4.4168,4.4101,4.4161,4.4157,4.4281,4.4297,4.434,4.4504,4.4512,4.4403,4.4409,4.4414,4.4417,0,0,0,0,0,0,0,4.3743,4.3769,4.4026,4.3982,4.3989,4.3993,4.4014,4.4124,4.4205,4.4106,4.4108,4.4131,4.4284,4.433,4.4344,4.4515,4.4403,4.4412,4.4419,4.4423,4.4793,4.4797,0,0,0,0,0,0,4.3725,4.376,4.402,4.4032,4.3863,4.4002,4.4025,4.4087,4.4204,4.4219,4.4133,4.4131,4.4313,4.4332,4.4351,4.4507,4.4414,4.4424,4.443,4.479,4.4794,4.4798,0,0,0,0,0,0,4.3717,4.3748,4.4012,4.3896,4.393,4.4011,4.408,4.4092,4.4138,4.4225,4.4239,4.4165,4.4311,4.4336,4.446,4.4513,4.4429,4.4438,4.4786,4.4791,4.4796,4.4817,0,0,0,0,0,0,4.3707,4.3745,4.3794,4.3897,4.3936,4.4118,4.4083,4.4098,4.4156,4.4155,4.4258,4.4273,4.4311,4.4444,4.447,4.4526,4.4446,4.4781,4.4788,4.4794,4.4811,4.4822,4.4831,0,0,0,0,0,4.3694,4.3791,4.3796,4.3827,4.3999,4.4121,4.4143,4.4187,4.4161,4.421,4.4266,4.4269,4.4503,4.4456,4.4486,4.4546,4.4778,4.4786,4.4794,4.4807,4.482,4.4831,0,0,0,0,0,0,4.3689,4.3805,4.3812,4.3945,4.4023,4.4124,4.4187,4.4198,4.4285,4.428,4.4329,4.4352,4.4474,4.4522,4.4468,4.4674,4.4638,4.4652,4.4638,4.4651,4.466,4.4646,4.4455,0,0,0,0,0,4.3704,4.3794,4.389,4.3998,4.4037,4.4105,4.416,4.4187,4.427,4.4302,4.4367,4.4446,4.4538,4.4597,4.4686,4.4819,4.4842,4.4875,4.4885,4.4892,4.4904,4.4979,4.4995,4.4824,4.4824,4.4824,0,0,4.3734,4.3808,4.3862,4.3999,4.4062,4.4154,4.4133,4.4231,4.4299,4.4317,4.4438,4.4488,4.458,4.4709,4.4769,4.4753,4.4957,4.4902,4.4908,4.4915,4.4989,4.5005,4.502,4.4829,4.4828,4.4827,0,0,4.3837,4.3902,4.4,4.4065,4.4163,4.4208,4.4232,4.4332,4.4367,4.4489,4.4505,4.4587,4.4743,4.4809,4.4862,4.4992,4.4999,4.502,4.507,4.5143,4.5157,4.5169,4.5216,4.5233,4.5031,4.5031,4.5031,0,4.3862,4.4002,4.4048,4.4147,4.4207,4.4229,4.4329,4.4389,4.451,4.4551,4.4532,4.473,4.4793,4.4939,4.4971,4.5013,4.5042,4.5008,4.5151,4.5164,4.5176,4.5222,4.5239,4.5033,4.5033,4.5033,4.5033,0,4.4029,4.4126,4.4193,4.4312,4.4379,4.4478,4.4539,4.4601,4.4623,4.467,4.4796,4.4873,4.4978,4.5015,4.5036,4.5164,4.5151,4.5141,4.5106,4.5194,4.5238,4.5255,4.5036,4.5035,4.5035,4.5034,0,0,4.4132,4.4277,4.4301,4.4356,4.4467,4.4542,4.4642,4.4747,4.48,4.4883,4.4969,4.5102,4.5094,4.5155,4.5184,4.5248,4.5348,4.523,4.5233,4.525,4.5495,4.5502,4.5521,4.5353,4.5356,4.5359,4.5487,0,4.4248,4.4427,4.4473,4.4626,4.4716,4.474,4.4827,4.4904,4.4951,4.5035,4.5087,4.5181,4.5163,4.52,4.5265,4.5322,4.5397,4.5313,4.5432,4.5436,4.5409,4.5544,4.5551,4.5668,4.5504,4.5507,4.5509,0,4.4406,4.4495,4.4658,4.4759,4.4798,4.4876,4.4977,4.5056,4.5145,4.5175,4.5244,4.5268,4.5372,4.5332,4.5477,4.5419,4.5471,4.5506,4.5512,4.5525,4.5478,4.556,4.5706,4.5724,4.5537,4.5535,4.5533,0,4.4466,4.4627,4.4745,4.4791,4.4911,4.4966,4.5018,4.5103,4.5164,4.5253,4.5293,4.5391,4.5445,4.5521,4.557,4.5536,4.5712,4.5675,4.574,4.5739,4.5775,4.5772,4.5932,4.5808,4.5808,4.5808,4.5807,0,4.4591,4.4689,4.4774,4.4847,4.4958,4.501,4.5118,4.5171,4.5248,4.5331,4.5357,4.5434,4.5495,4.5581,4.562,4.5735,4.5759,4.5786,4.5795,4.5784,4.5781,4.5818,4.5811,4.5812,4.5811,4.581,4.581,0,4.4676,4.4737,4.4868,4.4972,4.5,4.5078,4.5167,4.5238,4.5287,4.5393,4.542,4.5497,4.5599,4.5657,4.5785,4.5811,4.594,4.5945,4.5911,4.5915,4.5976,4.597,4.6166,4.6194,4.6051,4.6052,4.6053,0,4.4752,4.4829,4.4942,4.5,4.5054,4.5148,4.5211,4.5265,4.533,4.5437,4.5496,4.5601,4.5687,4.585,4.5916,4.6015,4.6023,4.6085,4.6038,4.6025,4.6025,4.602,4.6028,4.6093,4.6094,4.6095,4.6096,0,4.488,4.4907,4.4997,4.5099,4.5174,4.5257,4.5338,4.5384,4.5452,4.5523,4.563,4.5697,4.583,4.5933,4.6038,4.6091,4.6105,4.6111,4.6131,4.612,4.6097,4.6111,4.5933,4.6105,4.6105,4.6104,4.6103,4.6103,4.4963,4.5033,4.5124,4.5225,4.5293,4.5369,4.5442,4.5501,4.5591,4.5704,4.5731,4.5843,4.5931,4.6073,4.6129,4.6218,4.6206,4.6235,4.6242,4.6249,4.6252,4.6083,4.6237,4.6236,4.6236,4.6236,4.6236,0,4.5093,4.5153,4.5246,4.536,4.544,4.5448,4.5539,4.5605,4.5703,4.5785,4.587,4.5993,4.6094,4.617,4.6274,4.633,4.6339,4.6355,4.6351,4.6364,4.6256,4.6228,4.6346,4.6346,4.6346,4.6346,4.6346,4.6346,4.517,4.5289,4.5327,4.5481,4.554,4.5652,4.5703,4.5774,4.5839,4.5976,4.6061,4.611,4.619,4.63,4.6393,4.6413,4.645,4.6465,4.6486,4.6383,4.6371,4.636,4.6334,4.6473,4.6473,4.6587,4.6588,4.6589]}]]